Weather History for College Station, TX

Change the Weather History Date:

Wednesday, October 8, 2014

  Actual Average Record
Temperature  
Mean Temperature 81 °F 73 °F  
Max Temperature 89 °F 84 °F 95 °F (1925)
Min Temperature 73 °F 63 °F 36 °F (1952)
Degree Days  
Heating Degree Days 0 0  
Month to date heating degree days 0 0  
Since 1 July heating degree days 0 2  
Cooling Degree Days 16 9  
Month to date cooling degree days 89 76  
Year to date cooling degree days 2769 2872  
Growing Degree Days 30 (Base 50)    
Moisture  
Dew Point 72 °F    
Average Humidity 77    
Maximum Humidity 100    
Minimum Humidity 53    
Precipitation  
Precipitation 0.00 in 0.16 in 2.86 in (1927)
Month to date precipitation 0.72 1.17  
Year to date precipitation 30.06 29.87  
Sea Level Pressure  
Sea Level Pressure 30.00 in    
Wind  
Wind Speed 8 mph (SSE)    
Max Wind Speed 18 mph    
Max Gust Speed 23 mph    
Visibility 10 miles    
Events      
T = Trace of Precipitation, MM = Missing Value Source: NWS Daily Summary

Daily Weather History Graph

Daily Weather History Graph

Search for Another Location

Airport:

Trip Planner

Search our weather history database for the weather conditions in past years. The results will help you decide how hot, cold, wet, or windy it might be!

Date:

Astronomy

Oct. 08, 2014 Rise Set
Actual Time 7:23 AM CDT 7:02 PM CDT
Civil Twilight 6:59 AM CDT 7:26 PM CDT
Nautical Twilight 6:31 AM CDT 7:54 PM CDT
Astronomical Twilight 6:03 AM CDT 8:22 PM CDT
Moon 7:21 PM CDT (10/8) 7:29 AM CDT (10/8)
Length of Visible Light 12h 27m
Length of Day
11h 38m
Full, 100% of the Moon is Illuminated
Oct 8
Full
Oct 15
Last Quarter
Oct 23
New
Oct 30
First Quarter
Nov 6
Full

Hourly Weather History & Observations

Time (CDT) Temp. Heat Index Dew Point Humidity Pressure Visibility Wind Dir Wind Speed Gust Speed Precip Events Conditions
12:53 AM 75.0 °F - 72.0 °F 90% 29.98 in 10.0 mi SSE 11.5 mph - N/A   Scattered Clouds
1:09 AM 75.0 °F - 72.0 °F 90% 29.99 in 10.0 mi SSE 10.4 mph - N/A   Mostly Cloudy
1:53 AM 75.2 °F - 71.6 °F 89% 29.99 in 10.0 mi SSE 9.2 mph - N/A   Mostly Cloudy
2:00 AM 73.9 °F - 72.0 °F 93% 30.00 in 10.0 mi South 8.1 mph - N/A   Scattered Clouds
2:53 AM 73.9 °F - 72.0 °F 93% 29.99 in 10.0 mi South 5.8 mph - N/A   Mostly Cloudy
3:01 AM 73.0 °F - 72.0 °F 96% 30.00 in 10.0 mi SSE 5.8 mph - N/A   Partly Cloudy
3:39 AM 73.9 °F - 72.0 °F 93% 30.00 in 10.0 mi South 4.6 mph - N/A   Mostly Cloudy
3:53 AM 73.0 °F - 72.0 °F 96% 29.99 in 10.0 mi SSE 5.8 mph - N/A   Mostly Cloudy
4:10 AM 73.9 °F - 72.0 °F 93% 30.00 in 10.0 mi South 5.8 mph - N/A   Mostly Cloudy
4:53 AM 73.9 °F - 73.0 °F 97% 30.00 in 10.0 mi South 8.1 mph - N/A   Overcast
5:08 AM 73.9 °F - 73.0 °F 97% 30.01 in 10.0 mi South 8.1 mph - N/A   Overcast
5:53 AM 73.9 °F - 73.0 °F 97% 30.01 in 8.0 mi South 5.8 mph - N/A   Overcast
6:53 AM 73.9 °F - 73.0 °F 97% 30.02 in 8.0 mi South 5.8 mph - N/A   Overcast
7:53 AM 73.9 °F - 73.0 °F 97% 30.03 in 7.0 mi South 6.9 mph - N/A   Overcast
8:53 AM 73.9 °F - 73.0 °F 97% 30.04 in 3.0 mi SSE 5.8 mph - N/A   Overcast
9:53 AM 75.9 °F - 73.0 °F 91% 30.05 in 10.0 mi South 5.8 mph - N/A   Overcast
10:00 AM 75.9 °F - 73.0 °F 91% 30.06 in 10.0 mi South 3.5 mph - N/A   Overcast
10:18 AM 77.0 °F - 73.0 °F 88% 30.06 in 10.0 mi SSE 5.8 mph - N/A   Overcast
10:48 AM 80.6 °F 85.4 °F 73.4 °F 79% 30.07 in 10.0 mi SSE 5.8 mph - N/A   Mostly Cloudy
10:53 AM 80.1 °F 84.2 °F 73.0 °F 79% 30.05 in 10.0 mi SSE 6.9 mph - N/A   Mostly Cloudy
11:05 AM 80.1 °F 83.8 °F 72.0 °F 76% 30.06 in 10.0 mi South 6.9 mph - N/A   Mostly Cloudy
11:53 AM 82.0 °F 86.3 °F 71.1 °F 69% 30.05 in 10.0 mi South 9.2 mph - N/A   Mostly Cloudy
12:53 PM 84.0 °F 88.4 °F 70.0 °F 63% 30.03 in 10.0 mi SSW 6.9 mph - N/A   Scattered Clouds
1:53 PM 87.1 °F 90.6 °F 68.0 °F 53% 30.00 in 10.0 mi SE 11.5 mph - N/A   Partly Cloudy
2:53 PM 87.1 °F 91.3 °F 69.1 °F 55% 29.97 in 10.0 mi SE 8.1 mph - N/A   Partly Cloudy
3:53 PM 87.1 °F 91.3 °F 69.1 °F 55% 29.96 in 10.0 mi SE 9.2 mph - N/A   Clear
4:53 PM 87.1 °F 91.3 °F 69.1 °F 55% 29.94 in 10.0 mi ESE 9.2 mph - N/A   Clear
5:53 PM 84.9 °F 89.4 °F 70.0 °F 61% 29.94 in 10.0 mi SE 6.9 mph - N/A   Clear
6:53 PM 84.0 °F 88.4 °F 70.0 °F 63% 29.94 in 10.0 mi ESE 8.1 mph - N/A   Scattered Clouds
7:53 PM 80.1 °F 83.2 °F 70.0 °F 71% 29.96 in 10.0 mi SE 11.5 mph - N/A   Mostly Cloudy
8:53 PM 78.1 °F - 72.0 °F 81% 29.97 in 10.0 mi SE 12.7 mph - N/A   Mostly Cloudy
9:53 PM 77.0 °F - 73.4 °F 89% 29.99 in 10.0 mi SE 11.5 mph - N/A   Partly Cloudy
10:53 PM 77.0 °F - 73.0 °F 88% 29.99 in 10.0 mi SE 8.1 mph - N/A   Overcast
11:53 PM 75.9 °F - 73.0 °F 91% 30.00 in 10.0 mi SSE 8.1 mph - N/A   Overcast